This is the latest recevied weather packets stored in our database for station/object IZ1GCT. If no packets are shown the sender has not sent any weather packets the latest 10 day(s).
| Time | Temp. | Humidity | Pressure | Rain* | Wind** | Luminosity | Snow |
|---|---|---|---|---|---|---|---|
| 1778171740 | 20° C | 45% | 1014.7 hPa | 0 mm | - | - | - |
| 1778171440 | 20° C | 44% | 1014.7 hPa | 0 mm | - | - | - |
| 1778171139 | 20.56° C | 43% | 1014.9 hPa | 0 mm | - | - | - |
| 1778170840 | 21.11° C | 43% | 1014.7 hPa | 0 mm | - | - | - |
| 1778170540 | 21.11° C | 44% | 1014.8 hPa | 0 mm | - | - | - |
| 1778170239 | 21.11° C | 44% | 1014.6 hPa | 0 mm | - | - | - |
| 1778169940 | 21.11° C | 45% | 1014.7 hPa | 0 mm | - | - | - |
| 1778169342 | 20° C | 45% | 1014.6 hPa | 0 mm | - | - | - |
| 1778169044 | 20.56° C | 44% | 1014.5 hPa | 0 mm | - | - | - |
| 1778168743 | 21.11° C | 43% | 1014.5 hPa | 0 mm | - | - | - |
| 1778168442 | 20.56° C | 43% | 1014.6 hPa | 0 mm | - | - | - |
| 1778168143 | 20.56° C | 42% | 1014.6 hPa | 0 mm | - | - | - |
| 1778167843 | 20.56° C | 43% | 1014.6 hPa | 0 mm | - | - | - |
| 1778167543 | 20.56° C | 44% | 1014.6 hPa | 0 mm | - | - | - |
| 1778167242 | 21.11° C | 42% | 1014.5 hPa | 0 mm | - | - | - |
| 1778166943 | 21.11° C | 44% | 1014.5 hPa | 0 mm | - | - | - |
| 1778166643 | 20.56° C | 44% | 1014.6 hPa | 0 mm | - | - | - |
| 1778166343 | 21.11° C | 42% | 1014.6 hPa | 0 mm | - | - | - |
| 1778166042 | 21.11° C | 44% | 1014.6 hPa | 0 mm | - | - | - |
| 1778165743 | 21.11° C | 44% | 1014.7 hPa | 0 mm | - | - | - |
| 1778165443 | 20.56° C | 43% | 1014.8 hPa | 0 mm | - | - | - |
| 1778165142 | 21.11° C | 44% | 1014.7 hPa | 0 mm | - | - | - |
| 1778164841 | 20.56° C | 46% | 1014.8 hPa | 0 mm | - | - | - |
| 1778164543 | 20° C | 45% | 1014.8 hPa | 0 mm | - | - | - |
| 1778164242 | 20.56° C | 45% | 1014.7 hPa | 0 mm | - | - | - |
* Rain latest hour (hover to see other rain measurements)
** Current wind speed in m/s (hover to see current wind gust speed)